This is the latest recevied weather packets stored in our database for station/object KX4O-13. If no packets are shown the sender has not sent any weather packets the latest 1 day(s).
| Time | Temp. | Humidity | Pressure | Rain* | Wind** | Luminosity | Snow |
|---|---|---|---|---|---|---|---|
| 1777969253 | 13.33° C | 73% | 1011.3 hPa | 0 mm | 1.34 m/s, 195° | 0 W/m² | - |
| 1777968953 | 13.33° C | 74% | 1011.2 hPa | 0 mm | 0.89 m/s, 198° | 0 W/m² | - |
| 1777968655 | 13.33° C | 75% | 1011.2 hPa | 0 mm | 0.89 m/s, 188° | 0 W/m² | - |
| 1777968353 | 12.78° C | 76% | 1011.1 hPa | 0 mm | 0.45 m/s, 197° | 0 W/m² | - |
| 1777968053 | 12.22° C | 77% | 1011.2 hPa | 0 mm | 0.45 m/s, 226° | 0 W/m² | - |
| 1777967753 | 12.78° C | 76% | 1011.1 hPa | 0 mm | 0.45 m/s, 184° | 0 W/m² | - |
| 1777967453 | 12.78° C | 77% | 1011 hPa | 0 mm | 0.45 m/s, 188° | 0 W/m² | - |
| 1777967153 | 12.22° C | 77% | 1011 hPa | 0 mm | 0.45 m/s, 207° | 0 W/m² | - |
| 1777966853 | 12.22° C | 78% | 1011 hPa | 0 mm | 0.45 m/s, 190° | 0 W/m² | - |
| 1777966553 | 12.22° C | 77% | 1011 hPa | 0 mm | 0.45 m/s, 213° | 0 W/m² | - |
| 1777966255 | 12.22° C | 79% | 1011 hPa | 0 mm | 0.45 m/s, 186° | 0 W/m² | - |
| 1777965953 | 12.22° C | 79% | 1011 hPa | 0 mm | 0.45 m/s, 180° | 0 W/m² | - |
| 1777965653 | 12.22° C | 78% | 1011 hPa | 0 mm | 0.45 m/s, 193° | 0 W/m² | - |
| 1777965353 | 12.78° C | 79% | 1010.9 hPa | 0 mm | 0.45 m/s, 173° | 0 W/m² | - |
| 1777965053 | 12.22° C | 79% | 1010.9 hPa | 0 mm | 0.45 m/s, 230° | 0 W/m² | - |
| 1777964753 | 12.22° C | 80% | 1010.9 hPa | 0 mm | 0.45 m/s, 178° | 0 W/m² | - |
| 1777964453 | 11.67° C | 83% | 1010.9 hPa | 0 mm | 0.45 m/s, 176° | 0 W/m² | - |
| 1777964153 | 11.67° C | 84% | 1010.9 hPa | 0 mm | 0 m/s | 0 W/m² | - |
| 1777963855 | 11.11° C | 86% | 1010.9 hPa | 0 mm | 0.45 m/s, 219° | 0 W/m² | - |
| 1777963553 | 11.11° C | 86% | 1010.8 hPa | 0 mm | 0.45 m/s, 206° | 0 W/m² | - |
| 1777963253 | 10.56° C | 89% | 1010.9 hPa | 0 mm | 0 m/s | 0 W/m² | - |
| 1777962953 | 10° C | 89% | 1010.8 hPa | 0 mm | 0 m/s | 0 W/m² | - |
| 1777962653 | 9.44° C | 87% | 1010.8 hPa | 0 mm | 0.45 m/s, 142° | 0 W/m² | - |
| 1777962353 | 10° C | 88% | 1010.7 hPa | 0 mm | 0 m/s | 0 W/m² | - |
| 1777962053 | 10° C | 87% | 1010.7 hPa | 0 mm | 0 m/s | 0 W/m² | - |
* Rain latest hour (hover to see other rain measurements)
** Current wind speed in m/s (hover to see current wind gust speed)